Regional Weather Roundup
Issued by NWS Upton, NY

Current Version | Previous Version | Text Only | Print | Product List | Glossary On
Versions: 1 2 3 4 5 6 7 8 9 10 11 12 13 14 15 16 17 18 19 20 21 22 23 24 25 26 27
000 ASUS41 KOKX 241905 RWROKX Regional Weather Roundup National Weather Service New York NY 300 PM EDT TUE APR 24 2018 Note: "FAIR" indicates few or no clouds below 12,000 feet with no significant weather and/or obstructions to visibility. NYZ071-072-176-178-NJZ106-104-242000- New York City Metro Area CITY SKY/WX TMP DP RH WIND PRES REMARKS Central Park FAIR 63 39 41 VRB5 30.33F Bronx Bot Gard N/A 63 39 42 SW8 30.32S Bronx Lehman C N/A 61 39 44 S14 N/A LaGuardia Arpt PTSUNNY 65 40 39 SE17G24 30.30F Queens College N/A 61 41 48 SE14 N/A Kennedy Intl PTSUNNY 60 45 57 SE21G28 30.32F Breezy Point N/A 52 N/A N/A SE12 N/A Brooklyn Coll N/A 59 45 58 SE10 N/A Staten Island N/A 57 43 58 SE14 N/A Newark/Liberty PTSUNNY 61 42 49 SE13G24 30.30F Teterboro FAIR 65 40 39 S15G23 30.29F $$ NYZ177-179-078>081-242000- Long Island New York CITY SKY/WX TMP DP RH WIND PRES REMARKS Jones Beach N/A 54 N/A N/A SE12 N/A Wantagh N/A 59 46 63 SE16 N/A Hempstead N/A 59 45 58 SE12 30.34F Matinecock Pt N/A 61 N/A N/A S6G13 N/A Farmingdale FAIR 62 44 51 S20 30.32F MacArthur/ISP PTSUNNY 62 43 49 SE17G24 30.32F Stony Brook N/A 63 41 45 S9 N/A Shirley FAIR 62 44 51 SE16G24 30.34F Mt Sinai Harb N/A 61 N/A N/A S10G20 N/A Westhampton FAIR 61 40 45 SE13G22 30.36F East Hampton FAIR 57 41 55 S13 30.35F Southold N/A 61 41 48 S15 N/A Montauk N/A 58 45 62 VRB7 30.37F $$ NYZ052-065-067-242000- Hudson Valley CITY SKY/WX TMP DP RH WIND PRES REMARKS White Plains FAIR 62 37 39 S13 30.30F Larchmont Harb N/A 57 N/A N/A SE14 N/A Croton On Huds N/A 61 N/A N/A SE10 N/A Somers N/A 63 39 42 S12 N/A Brewster N/A 63 36 36 S9 N/A Newburgh MOSUNNY 66 39 37 S14G23 30.28F Montgomery FAIR 66 35 31 SW18G25 30.24F Otisville N/A 64 39 39 S9 N/A Warwick N/A 61 39 44 SE16 N/A Suffern N/A 63 39 42 S7 N/A Poughkeepsie FAIR 66 33 29 SW13G20 30.26F Albany FAIR 70 22 16 S17G25 30.23F $$ NJZ001-105-106-008-010-013-015-019>022-104-242000- New Jersey CITY SKY/WX TMP DP RH WIND PRES REMARKS Newark/Liberty PTSUNNY 61 42 49 SE13G24 30.30F Teterboro FAIR 65 40 39 S15G23 30.29F Caldwell FAIR 62 38 40 S17 30.29F Somerville PTSUNNY 66 44 45 SE9 30.24F Linden NOT AVBL Perth Amboy N/A 57 N/A N/A SE16 N/A Sussex FAIR 65 40 39 S13G18 30.26F Andover N/A 64 38 38 SE9 30.25F Trenton FAIR 63 44 50 SE15G23 30.26F Millville CLOUDY 62 44 51 E17 30.24F Atlantic City PTSUNNY 61 48 62 SE16G25 30.26F Wrightstown PTSUNNY 63 43 49 SE16 30.24 Toms River FAIR 61 44 53 SE13 30.29F Belmar FAIR 59 43 55 E15G22 30.30F $$ PAZ047>061-062-071-242000- Eastern Pennsylvania CITY SKY/WX TMP DP RH WIND PRES REMARKS Philadelphia CLOUDY 63 45 51 SE13 30.25F Allentown PTSUNNY 65 39 38 SE14 30.24F Scranton FAIR 66 36 32 S14G21 30.19F $$ CTZ002-004>006-009-010-012-RIZ004-006-007-MAZ004-011-015-242000- Southern New England In CT CITY SKY/WX TMP DP RH WIND PRES REMARKS Bradley Intl PTSUNNY 67 27 22 S18G29 30.29F Hartford FAIR 66 34 30 S10G23 30.30F Danbury FAIR 63 31 30 S10G20 30.31F Wtrbury/Oxford FAIR 62 37 39 S15 30.31F Norwalk Harbor N/A 52 N/A N/A E9 N/A Bridgeport FAIR 59 42 53 E7 30.32F Meriden FAIR 63 32 31 S13G21 30.31F New Haven FAIR 63 39 41 S9 30.33F Chester NOT AVBL Groton FAIR 57 45 64 S13 30.35F Willimantic FAIR 65 27 23 SW13 30.31F In RI CITY SKY/WX TMP DP RH WIND PRES REMARKS Providence PTSUNNY 62 45 53 S20 30.35F Block Island FAIR 55 42 61 S16 30.37F Westerly FAIR 57 44 62 S15 30.37F In MA CITY SKY/WX TMP DP RH WIND PRES REMARKS Boston FAIR 68 33 27 S13G23 30.28F Worcester FAIR 64 25 22 SW16G22 30.28F Westfield FAIR 67 23 19 S16G25 30.27F Provincetown FAIR 58 43 57 S14G21 30.36F Nantucket FAIR 52 43 71 S13 30.39F $$ ANZ330-335-338-340-345-350-353-355-242000- Coastal Marine Observations STATION/POSITION TIME SKY/WX TEMP WIND PRES VSBY WAVE AIR SEA DIR/SP/G HT/PER (UTC) (F) (DEG/KT/KT) (MB) (MI) (FT/S) NY Harb Entrance 1850 50 48 120/ 12/ 12 1026.4 1/ 8 20 S Fire Island 1850 50 46 120/ 10/ 10 1026.8 1/ 9 23 SSW Montauk P 1850 48 46 160/ 8/ 8 1028.2 1/ 8 15 E Barnegat Li 1830 47 N/A 2/13 Hudson Canyon 1850 51 48 110/ 10/ 12 1026.2 3/ 5 Kings Point 1848 59 49 210/ 14/ 17 1027.2 Execution Rocks NOT AVBL Western LI Sound NOT AVBL Central LI Sound 1845 52 130/ 6/ 8 N/A 0 Robbins Reef 1848 56 150/ 20/ 24 1027.0 $$ >>>>>>>>>>>>>>>>>>>>>>>>>>>> KEY <<<<<<<<<<<<<<<<<<<<<<<<<<< > < > SKY/WX - Sky Condition/Present Weather < > TMP - Temperature in Fahrenheit < > DP - Dew Point in Fahrenheit < > RH - Relative Humidity in Percent < > WIND - Direction (from) and Speed in MPH < > PRES - Mean Sea Level Pressure (inches of Hg) < > WCI - Wind Chill Index < > VSB - Visibility in Miles < > HX - Heat Index < > TC - Temperature in Celsius < > VRB - Varibale Wind Direction < > < >>>>>>>>>>>>>>>>>>>>>>>>>>>> KEY <<<<<<<<<<<<<<<<<<<<<<<<<<<

USA.gov is the U.S. government's official web portal to all federal, state and local government web resources and services.